Regional Weather Roundup
Issued by NWS

Home | Current Version | Previous Version | Text Only | Print | Product List | Glossary Off
Versions: 1 2 3 4 5 6 7 8 9 10 11 12 13 14 15 16 17 18 19 20 21 22 23 24 25 26 27 28 29 30 31 32 33 34 35 36 37 38 39 40 41 42 43 44 45 46 47 48 49 50

370
ASUS45 KCYS 240910
RWRWY

WYOMING REGIONAL WEATHER ROUNDUP
NATIONAL WEATHER SERVICE CHEYENNE WY
300 AM MDT SAT SEP 24 2016

NOTE:  "FAIR" INDICATES FEW OR NO CLOUDS BELOW 12,000 FEET
WITH NO SIGNIFICANT WEATHER AND/OR OBSTRUCTIONS TO VISIBILITY.

WYZ001-241000-
YELLOWSTONE NATIONAL PARK

CITY           SKY/WX    TMP DP  RH WIND       PRES   REMARKS
LK YELLOWSTONE   N/A     39  37  92 NW8       30.00R WCI  33
W YELLOWSTONE  NOT AVBL

$$
WYZ002>013-054>058-071-098>099-241000-
NORTHERN WYOMING

CITY           SKY/WX    TMP DP  RH WIND       PRES   REMARKS
JACKSON        CLOUDY    37  37 100 CALM      30.01S
CODY           RAIN      47  46  97 CALM      29.93F
GREYBULL       LGT RAIN  50  49  96 N3        29.90F
WORLAND        RAIN      49  48  97 CALM      29.91R
SHERIDAN       RAIN      50  49  96 W5        29.88F FOG
BUFFALO        RAIN      48  46  93 NW3       29.89F FOG
GILLETTE       RAIN      49  49 100 NW12      29.86F FOG
HULETT         LGT RAIN  50  50 100 NW3       29.84F
NEWCASTLE      CLOUDY    48  48 100 CALM      29.82F

$$
WYZ014>020-022>026-101>103-241000-
CENTRAL WYOMING

CITY           SKY/WX    TMP DP  RH WIND       PRES   REMARKS
BIG PINEY      LGT RAIN  40  37  89 SW3       30.01S
PINEDALE       LGT RAIN  37  37 100 CALM      30.01S
DUBOIS         LGT RAIN  39  36  87 NW5       29.95F
LANDER         LGT RAIN  45  42  89 W9        29.91F
RIVERTON       CLOUDY    46  43  89 N9        29.91F
CASPER         LGT RAIN  44  40  85 S12       29.92S
DOUGLAS        RAIN      44  41  89 W12       29.95R FOG

$$
WYZ021-027>030-104>119-241000-
SOUTHERN WYOMING

CITY           SKY/WX    TMP DP  RH WIND       PRES   REMARKS
EVANSTON       LGT RAIN  34  32  92 SW17      30.05  WCI  23
FORT BRIDGER   LGT SNOW  34  34 100 W9        30.06S WCI  27
ROCK SPRINGS   LGT RAIN  38  37  97 SW10      30.02F WCI  31
DIXON          DRIZZLE   40  36  87 SW9G16    30.08F WCI  33
RAWLINS        LGT RAIN  38  35  89 SW15      30.00F WCI  29
SARATOGA       CLOUDY    39  32  75 W12G20    30.03R WCI  32
LARAMIE        FAIR      31  31 100 W5        30.01F WCI  26
CHEYENNE       CLOUDY    40  36  86 MISG      29.99F
TORRINGTON     LGT RAIN  45  44  97 W16       29.97R
PINE BLUFFS    LGT RAIN  41  37  87 NW17G24   29.99F

$$




USA.gov is the U.S. government's official web portal to all federal, state and local government web resources and services.